Notices

What's New in latest Release from April 7th, 2021:

- Updated Glossary, including Speed of Maximum Gust, and Total Hourly Precipitation

- Updated national and regional climate services offices contacts and prices information

- Addition of station inventory lists for 1981-2010, 1971-2000, and 1961-1990 Normals.

If you haven't already, please take our survey and provide feedback about our website: https://eccc.sondage-survey.ca/f/LanguageSelection.aspx?s=442ca660-fcf1-47c0-95a9-59707d6fd709

Hourly Data Report for November 05, 2019

CARBERRY CS
MANITOBA
Current Station Operator: ECCC - MSC

49°54'20.900" N
99°21'26.800" W
383.50 m
5010547
71170
WZE

Download Data

Hourly Data (November 2019)
Hourly Data Report for November 5, 2019
TIME
LST
Temp Definition
°C
Dew Point Definition
°C
Rel Hum Definition
%
Precip. Amount Definition
mm

Wind Dir Definition
10's deg

Wind Spd Definition
km/h
Visibility Definition
km
Stn Press Definition
kPa
Hmdx Definition


Wind Chill Definition


Weather Definition


00:00 -13.5 -15.7 84 0.0 28 8   97.64   -19 LegendNANA
01:00 -14.4 -16.2 86 0.0 27 8   97.64   -20 LegendNANA
02:00 -14.1 -16.3 84 0.0 25 10   97.65   -20 LegendNANA
03:00 -15.9 -17.9 85 0.0 28 8   97.66   -21 LegendNANA
04:00 -16.1 -18.1 85 0.0 27 9   97.66   -22 LegendNANA
05:00 -16.3 -18.6 82 0.0 26 8   97.69   -22 LegendNANA
06:00 -15.9 -18.1 83 0.0 24 8   97.71   -21 LegendNANA
07:00 -16.5 -18.7 84 0.0 24 5   97.73   -20 LegendNANA
08:00 -16.2 -18.5 82 0.2 26 9   97.71   -22 LegendNANA
09:00 -13.6 -16.4 79 0.0 26 7   97.72   -18 LegendNANA
10:00 -10.7 -14.2 76 0.0 27 10   97.75   -16 LegendNANA
11:00 -8.9 -13.4 70 0.0 25 10   97.74   -14 LegendNANA
12:00 -7.1 -12.2 67 0.0 28 17   97.70   -14 LegendNANA
13:00 -5.5 -11.7 62 0.0 28 16   97.67   -11 LegendNANA
14:00 -5.5 -11.8 61 0.0 26 17   97.62   -12 LegendNANA
15:00 -5.6 -12.1 60 0.0 24 12   97.57   -11 LegendNANA
16:00 -5.7 -12.2 60 0.0 27 23   97.62   -13 LegendNANA
17:00 -6.3 -12.8 60 0.0 28 15   97.60   -12 LegendNANA
18:00 -6.8 -12.1 66 0.0 28 12   97.65   -12 LegendNANA
19:00 -7.2 -10.7 77 0.0 29 13   97.68   -13 LegendNANA
20:00 -7.5 -11.3 74 0.0 30 19   97.72   -15 LegendNANA
21:00 -8.5 -12.3 74 0.0 31 17   97.75   -15 LegendNANA
22:00 -9.7 -13.8 72 0.0 31 18   97.87   -17 LegendNANA
23:00 -9.9 -13.8 73 0.0 32 19   97.99   -18 LegendNANA

Notes on Data Quality.

Legend

  • E = Estimated
  • M = Missing
  • NA = Not Available*
  • [empty] = Indicates an unobserved value
Date modified: